Weather Roundup
Issued by NWS

Home | Current Version | Previous Version | Text Only | Print | Product List | Glossary On
Versions: 1 2 3 4 5 6 7 8 9 10 11 12 13 14 15 16 17 18 19 20 21 22 23 24 25 26 27 28 29 30 31 32 33 34 35 36 37 38 39 40 41 42 43 44 45 46 47 48 49 50
604
NZUS93 KARX 250059
HRRWXR

CURRENT HOURLY OBSERVATIONS ACROSS
MUCH OF THE UPPER MISSISSIPPI VALLEY
NATIONAL WEATHER SERVICE LA CROSSE WI
800 PM CDT WED MAY 24 2017


...SOUTHEAST MINNESOTA...


CITY           SKY/WX    TMP DP  RH WIND       PRES   REMARKS
ROCHESTER      CLOUDY    57  48  72 N6        29.70S
ROCHESTER/MAYO NOT AVBL
WINONA         PTCLDY    59  48  67 E5        29.69S
AUSTIN         CLOUDY    57  48  72 CALM      29.68S
ALBERT LEA     CLOUDY    59  48  67 N5        29.69S
DODGE CENTER   CLOUDY    57  46  67 NE7       29.70R
PRESTON        CLOUDY    55  49  78 NE5       29.69R
OWATONNA       CLOUDY    57  46  67 CALM      29.70S
FARIBAULT      CLOUDY    59  48  67 N3        29.70S
$$

...ELSEWHERE IN MINNESOTA...


CITY           SKY/WX    TMP DP  RH WIND       PRES   REMARKS
MINNEAPOLIS    CLOUDY    60  44  55 E8        29.70S
INTNL FALLS    CLEAR     62  38  40 SE8       29.70S
DULUTH         PTCLDY    52  42  69 E10       29.74F
RED WING       CLOUDY    61  45  55 CALM      29.69S
REDWOOD FALLS  MOCLDY    59  44  57 E5        29.68F
MANKATO          N/A     58  45  62 NE5       29.70S
WORTHINGTON    MOCLDY    56  46  69 E8        29.69F
FAIRMONT       CLEAR     60  47  61 E7        29.69S
$$

...SOUTHWEST WISCONSIN...


CITY           SKY/WX    TMP DP  RH WIND       PRES   REMARKS
LA CROSSE      CLOUDY    60  50  69 E6        29.69R
PRAIRIE DU CHI CLOUDY    57  49  72 CALM      29.67R
BOSCOBEL       CLOUDY    59  51  75 VRB3      29.67S
LONE ROCK      CLOUDY    57  50  77 N6        29.67R
PLATTEVILLE    CLOUDY    57  54  88 N12       29.66R
FORT MC COY    CLOUDY    55  51  86 CALM      29.70S
MAUSTON-NEW LI CLOUDY    55  51  85 NE5       29.68S
VIROQUA        CLOUDY    55  51  87 MISG      29.68S
WIS DELLS      CLOUDY    54  49  83 NE9       29.68S
$$

...ELSEWHERE IN WISCONSIN...


CITY           SKY/WX    TMP DP  RH WIND       PRES   REMARKS
MILWAUKEE      MOCLDY    54  50  86 N17       29.61R
MADISON        MOCLDY    54  50  86 N8        29.65S
GREEN BAY      CLOUDY    53  52  96 N12       29.68S
EAU CLAIRE     NOT AVBL
BLACK RVR FLS  CLOUDY    56  48  74 NE6       29.70R
MEDFORD        CLOUDY    53  47  81 NE5       29.71R
WAUSAU         CLOUDY    54  49  83 E5        29.70R
WIS RAPIDS     PTCLDY    53  49  86 E6        29.71S
MARSHFIELD     CLOUDY    54  49  83 E5        29.70R
RICE LAKE      CLOUDY    59  46  63 E6        29.72R
$$

...NORTHEAST IOWA...


CITY           SKY/WX    TMP DP  RH WIND       PRES   REMARKS
WATERLOO       MOCLDY    57  49  74 E7        29.67R
DUBUQUE        CLOUDY    55  50  83 N9        29.65S
DECORAH        MOCLDY    55  48  76 NE9       29.68R
MASON CITY     CLOUDY    58  48  69 N6        29.70R
CHARLES CITY   CLOUDY    59  50  72 NE5       29.68S
OELWEIN        PTCLDY    57  50  77 NE7       29.68R
$$

...ELSEWHERE IN IOWA...


CITY           SKY/WX    TMP DP  RH WIND       PRES   REMARKS
DES MOINES     PTCLDY    62  48  60 N3        29.67R
IOWA CITY      CLOUDY    60  49  66 N8        29.66R
FORT DODGE     PTCLDY    59  48  67 NE6       29.68F
MARSHALLTOWN   CLEAR     58  50  75 NE7       29.66R
CEDAR RAPIDS   CLOUDY    57  51  80 N12       29.65R
$$

...NORTHERN ILLINOIS...


CITY           SKY/WX    TMP DP  RH WIND       PRES   REMARKS
CHICAGO-OHARE  CLOUDY    59  50  72 N16G22    29.56R
CHICAGO-MIDWAY CLOUDY    54  50  86 N16       29.56R
MOLINE         MOCLDY    62  50  64 N7        29.61S
ROCKFORD       CLOUDY    57  52  83 N12       29.62R
PEORIA         CLOUDY    59  54  83 N6        29.58R
$$

NOTE: "FAIR" INDICATES FEW OR NO CLOUDS BELOW 12,000 FEET WITH NO
SIGNIFICANT WEATHER AND/OR OBSTRUCTIONS TO VISIBILITY. WIND
SPEEDS ARE IN MILES-PER-HOUR.




USA.gov is the U.S. government's official web portal to all federal, state and local government web resources and services.